Temperature
23 23 22 23 22 22 23 24 25 24 25 25 25 24 23 22 21 19 18 18 18 17 17 17 17 17 17 17 17 17 17 17 17 17 17 17 18 18 18 18 18 18 18 17 17 18 18 18 18
23 23 23 23 22 22 23 24 24 25 25 25 24 24 23 21 20 18 18 18 18 17 17 17 17 17 17 17 17 17 17 17 17 17 17 17 17 18 17 17 17 17 17 17 17 17 17 18 18
23 23 23 23 23 23 23 24 24 25 25 25 24 23 21 20 19 18 18 18 18 17 17 17 17 17 17 17 17 17 17 17 17 17 17 17 17 17 17 17 17 17 17 17 17 17 17 17 17
22 23 25 24 23 24 24 24 25 25 25 24 24 22 20 19 19 18 18 18 18 17 17 17 17 17 17 17 17 17 17 17 17 17 17 17 17 17 17 17 17 17 17 17 17 17 17 17 17
23 24 24 23 24 24 25 25 25 25 24 24 23 21 19 18 18 18 18 18 18 17 17 17 17 17 17 17 17 17 17 17 17 17 17 17 17 17 17 17 17 17 17 17 17 17 17 17 17
24 25 23 23 24 25 25 25 25 25 24 23 23 21 19 18 18 18 18 18 18 17 17 17 17 17 17 17 17 17 17 17 17 17 17 17 17 17 17 17 17 17 17 17 17 17 17 17 17
24 24 23 24 23 24 25 25 24 24 23 23 23 21 19 18 18 18 18 18 18 17 17 17 17 17 17 17 17 17 17 17 17 17 17 17 17 17 17 17 17 17 17 17 17 17 17 17 17
24 24 24 24 23 23 25 24 24 23 23 23 22 21 19 18 18 18 18 18 18 17 17 17 17 17 17 17 17 17 17 17 17 17 17 17 17 17 17 17 17 17 17 17 17 16 16 16 16
24 24 23 24 23 23 24 24 24 23 23 22 22 21 19 19 18 18 18 18 18 18 17 17 17 17 17 17 17 17 17 17 17 17 17 16 16 16 16 16 16 16 16 16 16 16 16 16 16
24 22 23 24 24 24 24 24 24 23 22 22 21 20 19 19 19 19 18 18 18 18 17 17 17 17 17 17 17 17 17 17 17 16 16 16 16 16 16 16 16 16 16 16 16 16 16 16 16
25 23 24 25 24 24 24 23 23 23 22 21 20 19 19 19 19 19 18 18 18 18 18 17 17 17 17 17 17 17 16 16 16 16 16 16 16 16 16 16 16 16 16 16 16 16 16 16 16
24 24 24 24 24 24 23 23 22 22 21 21 20 19 19 19 19 18 18 18 18 18 18 17 17 17 17 17 17 16 16 16 16 16 16 16 16 16 16 16 15 15 16 16 16 16 16 16 16
24 24 24 23 23 23 23 22 22 22 21 21 20 19 19 19 19 18 18 18 18 17 17 17 17 17 17 17 17 16 16 16 16 16 16 16 16 16 16 15 15 15 15 15 15 15 15 15 15
24 24 23 23 23 23 22 22 22 21 21 21 20 19 19 19 19 18 18 18 18 17 17 17 17 17 17 17 17 16 16 16 16 16 16 16 16 16 16 15 15 15 15 15 15 15 15 15 15
24 23 23 23 23 23 22 21 22 21 21 21 20 20 19 19 19 19 18 18 18 17 17 17 17 17 17 17 17 16 16 16 16 16 16 16 16 15 15 15 15 15 15 15 15 15 15 14 14
24 23 22 23 24 23 22 20 22 21 21 21 20 20 19 19 19 19 18 18 18 17 17 17 17 17 17 17 16 16 16 16 16 16 16 16 15 15 15 15 15 15 14 14 14 14 14 14 14
23 23 23 23 24 23 22 21 21 21 21 21 20 20 19 19 19 19 18 18 18 17 17 17 16 16 16 16 16 16 16 15 15 15 15 15 15 15 15 15 14 14 14 14 14 14 14 14 14
23 23 23 23 23 23 22 21 21 21 21 21 21 20 20 19 19 19 18 18 17 17 17 17 16 16 16 16 16 16 16 15 15 15 15 15 15 15 15 14 14 14 14 14 14 14 13 13 13
24 24 23 23 24 23 22 21 21 21 21 21 21 20 20 19 19 19 18 18 17 17 17 17 16 16 16 16 16 15 15 15 15 15 15 15 15 15 14 14 14 14 14 14 13 13 13 13 13
24 24 23 23 24 23 22 21 22 21 21 21 21 20 20 20 19 19 18 17 17 17 16 16 16 16 16 15 15 15 15 15 15 15 15 14 14 14 14 14 14 14 14 13 13 13 13 13 13
24 23 23 23 23 23 22 21 21 21 21 21 20 20 20 20 19 18 18 17 17 17 16 16 16 16 15 15 15 15 15 14 14 14 14 14 14 14 14 14 14 14 13 13 13 13 13 13 13
23 24 23 23 22 21 22 20 21 21 21 21 20 20 20 20 19 18 18 17 17 16 16 16 16 16 15 15 15 15 14 14 14 14 14 14 14 14 14 14 14 13 13 13 13 13 13 13 12
23 23 23 23 22 22 22 21 21 21 20 21 20 20 20 20 19 18 18 17 17 16 16 16 16 16 15 15 15 14 14 14 14 14 14 14 13 13 13 13 13 13 13 13 13 12 12 12 12
23 23 23 23 22 21 22 22 21 21 21 21 21 20 20 20 19 18 18 17 16 16 16 16 16 15 15 15 14 14 14 14 14 14 13 13 13 13 13 13 13 13 13 12 12 12 12 12 12
23 21 21 20 20 21 23 22 21 22 22 22 21 21 20 20 19 18 17 17 16 16 16 15 15 15 15 14 14 14 14 14 13 13 13 13 13 13 13 13 12 12 12 12 12 12 12 12 12
22 22 20 20 20 21 23 22 21 22 22 22 21 20 20 19 19 18 17 16 16 15 15 15 15 15 14 14 14 14 13 13 13 13 13 13 13 13 12 12 12 12 12 12 12 12 12 12 12
22 21 22 21 21 21 22 22 21 22 21 21 21 20 20 19 19 18 17 16 16 15 15 15 15 14 14 14 14 13 13 13 13 13 13 13 12 12 12 12 12 12 12 12 12 11 11 11 11
22 21 21 20 20 20 21 21 20 20 20 20 20 20 20 19 18 17 17 16 15 15 15 15 14 14 14 14 13 13 13 13 13 13 13 12 12 12 12 12 12 12 11 11 11 11 11 11 11
21 21 21 20 20 19 19 20 22 21 21 20 20 20 19 19 18 17 16 16 15 15 14 14 14 14 14 13 13 13 13 13 13 13 12 12 12 12 12 11 11 11 11 11 11 11 11 11 11
21 20 20 19 19 20 19 19 21 21 21 21 20 20 19 19 18 17 16 16 15 15 14 14 14 14 13 13 13 13 13 13 12 12 12 12 12 11 11 11 11 11 11 11 11 11 10 10 10
Wind_Speed
11 11 8 2 2 1 5 6 7 7 8 10 10 10 13 13 9 8 4 5 8 10 12 12 12 12 12 12 12 12 12 12 12 12 12 12 11 11 11 11 11 11 12 12 11 11 11 11 11
10 8 4 3 1 2 5 6 9 9 8 8 10 12 13 12 11 8 5 5 9 11 13 12 12 12 12 12 12 12 12 13 13 13 12 12 11 11 11 10 10 11 12 12 12 11 11 11 11
10 8 4 2 2 3 5 7 8 9 7 7 9 11 9 7 8 5 4 6 10 12 14 13 12 12 12 12 12 11 12 12 13 13 13 13 12 12 12 11 11 11 11 11 11 11 11 11 11
6 4 2 1 5 6 7 8 7 7 7 8 10 9 8 8 6 7 6 7 11 11 13 12 12 11 11 11 11 11 12 12 13 13 13 13 12 12 13 13 12 12 11 11 10 10 11 10 10
4 3 1 2 6 8 7 6 7 8 6 8 11 10 8 8 9 8 7 9 10 10 12 12 11 11 11 11 11 11 12 12 12 12 13 12 12 13 13 13 13 12 11 11 10 11 10 9 9
3 2 1 3 6 6 5 6 7 8 8 8 9 10 7 7 8 7 8 8 9 9 10 11 11 11 10 10 10 10 11 10 10 11 11 11 11 12 12 12 12 11 11 10 10 10 9 8 8
4 2 1 3 5 5 6 6 7 7 8 6 6 8 7 8 6 7 8 7 8 8 8 8 9 9 9 9 9 9 9 9 9 9 9 10 9 10 11 11 11 11 10 9 9 8 7 7 6
4 1 1 2 5 4 6 6 6 7 6 5 6 7 7 7 7 7 8 8 8 7 6 6 8 8 8 8 8 8 8 7 7 6 6 7 8 9 9 10 10 10 10 8 8 7 6 5 5
4 1 0 2 4 5 5 5 6 5 7 7 8 10 11 11 8 7 7 7 7 6 5 5 5 6 7 7 7 6 6 5 4 3 3 3 5 7 8 9 9 9 8 7 6 6 5 4 4
1 1 1 3 5 6 5 4 4 4 7 8 10 12 12 9 8 7 7 6 6 6 5 4 4 6 7 6 5 4 4 4 3 3 4 4 6 7 8 7 8 7 6 5 4 3 3 2 2
0 0 2 4 5 5 5 4 3 5 4 6 8 10 9 8 7 6 6 6 6 5 5 4 4 5 6 4 4 4 4 3 4 5 6 6 5 5 5 4 5 4 4 3 3 2 2 2 3
1 2 2 4 4 4 3 3 4 5 4 6 8 9 8 7 6 5 5 6 6 6 5 5 4 4 5 5 4 3 3 3 4 4 6 5 3 3 3 3 3 3 3 3 3 2 4 5 5
2 3 3 4 4 4 4 4 4 4 5 7 8 7 7 6 5 6 6 6 6 5 5 5 4 4 4 4 2 3 3 4 4 4 5 5 3 3 3 3 3 4 4 3 3 4 5 5 6
3 4 4 5 5 4 4 3 3 3 4 6 8 7 5 5 5 6 5 5 6 5 5 4 4 4 5 4 2 3 4 4 4 3 4 6 5 3 2 3 3 3 4 4 4 4 3 3 4
5 5 4 5 5 5 5 3 3 4 5 5 7 7 6 5 5 5 5 4 5 5 6 5 4 4 5 4 3 5 4 5 4 4 5 6 5 4 3 2 2 3 4 5 4 4 3 3 4
7 6 4 4 5 5 5 3 4 4 4 5 6 7 5 5 5 5 6 5 5 5 6 6 4 4 5 4 4 4 5 5 5 5 5 6 6 7 5 3 2 3 4 4 2 3 3 3 3
8 6 6 5 6 5 4 3 4 4 4 4 5 6 6 6 5 5 6 5 5 5 6 6 5 4 5 4 4 4 5 5 4 5 5 6 7 7 5 3 3 5 4 3 3 4 3 3 3
5 5 5 5 6 5 5 4 6 6 5 5 5 5 6 6 5 6 6 6 6 5 5 6 5 4 4 3 3 3 4 3 4 4 5 6 6 7 5 3 4 4 3 3 3 3 3 2 2
6 5 5 4 5 5 6 6 6 7 6 5 5 5 6 6 6 6 7 7 6 5 4 5 5 4 4 2 2 3 2 2 3 3 5 6 6 5 5 3 3 3 2 2 3 2 3 2 3
7 6 5 2 4 4 5 7 6 7 8 6 5 5 6 6 7 7 8 8 7 6 5 5 5 4 4 2 2 2 2 2 2 3 4 4 4 5 4 3 2 2 2 3 3 3 2 2 2
7 6 5 4 4 7 6 7 7 7 7 7 6 4 5 6 7 7 7 7 7 7 6 5 5 5 4 4 2 2 2 1 2 2 1 2 4 4 3 3 2 1 1 2 2 2 1 1 2
6 4 6 6 6 6 7 5 6 8 8 8 7 6 5 6 6 7 6 6 6 6 5 5 5 5 4 4 3 2 2 1 1 1 0 1 3 4 3 3 3 2 1 1 1 1 1 1 1
5 6 8 9 9 9 9 7 4 7 7 8 8 7 6 5 7 7 7 6 6 5 5 5 4 5 5 4 3 3 2 1 1 1 1 1 1 2 2 3 3 2 1 1 1 1 1 0 0
6 8 10 9 7 9 9 7 3 5 7 7 7 7 7 6 6 7 7 6 5 5 5 5 4 4 4 4 4 3 3 2 2 1 1 1 0 1 2 2 2 2 1 1 1 1 1 1 1
6 6 4 4 6 6 5 5 2 3 4 6 6 5 5 6 6 6 7 7 6 6 5 4 4 4 4 4 3 4 3 3 3 2 2 1 0 0 1 1 1 1 1 1 1 1 1 2 1
7 7 5 4 5 5 5 4 3 5 5 5 4 4 5 6 7 7 7 7 6 6 5 5 4 4 4 4 3 3 2 2 2 2 2 2 1 1 1 0 1 2 2 2 1 1 2 2 2
6 6 7 7 9 8 5 3 3 5 5 5 5 4 5 5 6 7 7 7 6 6 6 5 5 4 3 3 3 3 3 2 2 2 2 2 1 1 0 0 1 2 2 2 1 1 2 2 2
6 6 5 4 5 6 5 4 3 5 5 4 5 5 4 5 6 7 7 7 6 6 5 5 5 4 4 3 3 2 2 2 1 1 1 1 1 0 0 0 1 1 2 1 1 1 2 2 2
5 6 5 5 5 5 5 1 2 3 4 5 5 4 4 5 5 6 6 6 6 6 5 5 5 4 4 4 3 2 2 2 2 2 1 1 1 0 0 0 1 1 1 1 1 2 2 2 2
5 6 7 5 6 6 6 2 3 4 2 3 4 4 4 5 6 6 6 6 6 6 5 5 5 5 4 4 3 3 2 2 2 1 1 1 0 0 1 1 1 1 2 2 1 2 2 2 2
Wind_Direction
279 259 248 246 274 75 61 72 75 64 60 55 51 61 64 52 55 89 104 79 87 88 88 77 66 63 62 62 62 62 62 63 61 60 62 62 62 64 65 67 68 69 72 70 66 65 64 63 60
285 283 275 239 237 84 70 72 74 66 69 75 65 64 69 64 70 92 95 83 89 90 86 78 70 66 65 66 64 61 62 62 61 60 61 62 61 64 66 67 70 73 73 72 67 65 62 60 57
271 274 268 265 57 84 95 86 85 82 68 76 81 63 54 62 69 82 93 95 88 87 88 84 76 70 68 68 65 63 63 63 62 60 61 63 65 65 66 66 71 76 74 72 69 66 64 62 55
275 268 244 68 72 71 94 103 100 92 73 70 84 76 65 49 72 100 114 98 90 91 93 93 84 78 71 69 69 66 65 65 64 62 62 64 68 69 69 69 70 74 73 71 68 67 65 61 54
254 257 188 91 75 72 77 90 96 90 80 69 83 91 83 67 82 100 101 93 94 96 98 100 93 87 78 72 71 69 68 67 65 64 62 65 68 70 70 72 70 72 71 69 67 65 63 58 51
268 253 149 111 98 91 91 88 89 85 81 77 89 99 93 98 94 96 92 88 92 96 100 107 106 98 89 82 77 72 70 69 68 67 65 69 72 73 73 72 72 70 68 68 65 63 61 55 49
284 299 129 123 107 91 77 73 77 82 75 68 85 98 111 104 107 107 101 95 91 94 100 106 112 104 100 94 87 81 78 74 73 73 72 73 77 79 76 75 72 69 67 67 65 59 55 52 47
293 318 148 136 116 102 88 85 77 75 82 74 79 102 121 128 131 120 113 105 98 94 97 102 109 109 105 99 94 87 85 81 79 82 80 83 83 82 77 74 72 70 67 66 64 56 49 45 42
295 308 19 73 104 102 101 106 98 99 93 75 72 92 120 136 134 124 114 108 101 97 96 95 100 102 97 98 98 96 97 95 92 95 103 103 90 84 77 76 76 74 72 69 64 56 49 42 38
288 35 30 57 100 114 106 99 121 117 100 90 86 93 114 130 136 129 120 112 108 104 95 101 97 95 88 83 95 103 95 104 96 76 88 80 69 76 79 85 84 75 69 70 65 50 39 22 56
207 120 68 72 87 104 116 103 80 111 99 102 111 119 129 135 130 123 117 112 112 110 99 77 77 77 86 83 79 67 68 74 74 58 65 71 74 83 84 90 83 71 59 53 62 27 24 40 59
129 80 78 92 89 95 103 113 87 88 93 99 111 125 134 137 129 123 120 113 108 99 94 86 77 78 81 82 79 71 64 52 54 51 58 62 54 67 69 69 66 62 42 27 30 27 32 39 41
153 130 112 109 108 107 109 105 102 99 103 109 119 126 133 135 122 110 109 109 107 101 95 88 85 80 80 85 76 80 74 66 57 44 56 67 61 69 63 57 55 46 39 28 28 26 23 24 27
147 141 139 141 136 137 127 132 154 142 138 132 137 139 142 133 125 119 113 108 111 112 107 93 95 86 76 80 82 78 73 74 67 45 46 57 53 59 64 57 50 43 37 30 43 38 31 27 25
167 159 169 175 173 170 155 176 170 146 153 153 148 147 145 139 137 133 124 118 119 121 111 98 92 85 87 87 80 78 71 71 64 45 50 59 54 55 59 60 51 47 36 33 39 36 43 33 27
196 199 199 189 186 187 206 203 161 149 166 166 162 155 156 152 154 143 126 121 113 118 114 110 102 95 90 83 73 71 70 67 64 51 45 50 52 59 50 51 45 49 47 39 30 32 33 32 25
221 222 198 188 191 184 205 201 168 171 181 183 181 170 169 165 163 143 130 126 119 115 114 114 102 95 92 89 79 69 69 64 63 56 43 41 44 56 53 40 31 44 41 36 35 34 20 25 13
233 238 223 199 181 190 204 207 173 183 199 198 193 185 173 167 167 150 140 133 124 119 118 118 108 101 103 98 91 80 77 69 60 57 43 35 40 54 56 40 38 43 46 33 39 33 19 17 356
269 254 240 202 174 196 210 219 192 186 203 205 198 195 178 165 160 151 146 142 133 125 125 120 122 117 105 95 87 89 77 72 65 53 56 40 29 39 52 39 42 37 49 42 43 28 16 7 7
263 260 258 213 177 219 227 233 208 189 196 203 204 202 178 162 156 154 147 152 149 147 151 142 139 133 121 107 95 96 94 85 97 58 54 44 30 32 45 44 51 39 49 43 43 38 9 3 12
258 268 276 264 234 232 235 238 214 198 194 193 202 207 182 170 165 156 152 155 154 156 162 155 145 139 128 118 104 97 97 75 61 63 46 19 36 43 31 35 40 32 59 66 45 40 30 359 335
275 287 286 269 260 256 237 255 209 194 195 193 193 196 190 175 165 158 155 150 156 155 158 157 151 145 136 127 119 114 116 120 148 124 107 6 29 37 33 33 22 26 52 71 29 45 1 43 323
298 295 277 270 262 264 246 251 220 182 195 197 193 193 190 172 162 158 155 154 151 148 156 158 151 138 132 135 143 149 144 159 154 141 136 103 29 33 21 37 22 7 12 38 4 358 345 336 288
283 275 264 254 255 254 243 237 228 197 201 188 186 187 179 172 157 151 142 139 136 132 138 147 146 142 142 149 158 165 170 182 170 149 132 121 61 10 19 29 21 1 356 344 321 284 299 289 289
278 279 270 237 230 239 233 233 203 158 161 163 169 171 172 164 155 147 144 148 147 145 143 142 145 144 143 151 165 182 191 196 179 167 173 169 163 303 297 353 327 332 335 329 338 325 308 285 277
259 265 272 281 281 284 247 227 155 124 125 131 137 149 168 168 158 154 152 156 156 153 151 151 146 153 157 167 182 186 183 195 188 183 174 181 200 207 197 1 344 333 334 336 345 314 311 305 307
270 264 276 283 283 276 248 200 158 135 140 147 153 162 166 160 159 157 156 160 160 159 157 159 156 157 165 179 190 189 181 178 171 182 171 181 212 226 122 67 331 328 330 334 351 327 309 306 301
260 283 285 276 283 279 266 247 202 160 180 168 173 177 164 153 158 157 160 165 162 157 156 161 161 171 180 187 197 200 180 164 159 153 132 158 211 219 184 210 289 306 307 312 316 304 302 302 283
242 256 268 276 275 282 281 294 30 150 172 172 175 171 166 158 166 160 163 164 158 152 160 170 171 176 182 190 191 188 182 180 176 163 138 166 222 192 188 226 287 297 308 298 301 280 282 288 286
244 259 262 264 273 281 287 290 48 58 84 137 164 167 171 159 160 160 162 158 156 158 165 176 178 176 175 178 177 191 180 174 183 167 148 187 237 334 326 340 329 327 327 322 321 299 312 310 297
Height
1491 1491 1492 1493 1495 1498 1501 1495 1492 1494 1494 1496 1497 1497 1502 1506 1511 1522 1522 1520 1520 1519 1518 1518 1518 1517 1517 1517 1517 1517 1517 1517 1516 1516 1515 1515 1515 1515 1515 1515 1515 1516 1516 1516 1517 1518 1518 1518 1518
1491 1492 1494 1493 1497 1507 1506 1496 1496 1496 1498 1499 1500 1502 1505 1511 1515 1519 1520 1521 1521 1520 1520 1519 1519 1519 1519 1519 1519 1518 1518 1518 1518 1517 1516 1516 1515 1515 1515 1515 1516 1516 1516 1517 1518 1518 1519 1519 1519
1492 1493 1494 1492 1496 1504 1505 1498 1497 1498 1499 1500 1502 1506 1510 1515 1518 1520 1521 1522 1522 1522 1521 1521 1521 1521 1521 1520 1520 1520 1520 1519 1519 1518 1517 1517 1516 1516 1516 1516 1516 1517 1518 1518 1519 1519 1519 1520 1520
1494 1494 1493 1495 1500 1497 1496 1497 1497 1499 1501 1501 1503 1510 1516 1519 1520 1521 1522 1523 1523 1523 1522 1522 1522 1522 1522 1522 1522 1522 1521 1521 1520 1520 1519 1518 1518 1517 1517 1517 1518 1518 1519 1519 1520 1520 1520 1520 1521
1494 1494 1496 1500 1499 1497 1496 1497 1499 1501 1502 1504 1506 1513 1519 1521 1521 1522 1523 1524 1524 1524 1524 1524 1524 1524 1524 1524 1524 1523 1523 1523 1522 1521 1521 1520 1520 1519 1519 1519 1520 1520 1520 1521 1521 1521 1521 1521 1521
1495 1492 1501 1506 1502 1498 1497 1498 1500 1502 1505 1506 1509 1514 1521 1523 1523 1524 1524 1525 1525 1525 1525 1525 1525 1525 1525 1525 1525 1525 1525 1525 1524 1523 1523 1522 1522 1522 1522 1522 1522 1522 1522 1522 1522 1521 1522 1522 1522
1496 1494 1500 1501 1502 1501 1500 1501 1502 1504 1507 1509 1510 1515 1521 1523 1524 1525 1526 1526 1527 1527 1527 1527 1527 1527 1527 1527 1527 1527 1527 1526 1526 1525 1525 1524 1524 1524 1523 1523 1523 1523 1523 1523 1523 1523 1523 1523 1523
1495 1495 1499 1500 1503 1504 1502 1503 1506 1507 1510 1512 1512 1516 1521 1524 1525 1526 1527 1528 1528 1528 1528 1528 1528 1528 1528 1529 1529 1528 1528 1528 1527 1527 1527 1526 1526 1526 1525 1525 1525 1525 1524 1524 1524 1524 1524 1524 1524
1495 1499 1504 1501 1503 1504 1503 1505 1508 1510 1512 1513 1514 1517 1520 1523 1525 1526 1527 1528 1529 1529 1530 1530 1530 1530 1530 1530 1530 1530 1530 1529 1529 1529 1529 1528 1528 1528 1528 1527 1527 1527 1526 1526 1526 1526 1526 1526 1526
1496 1503 1502 1498 1499 1503 1505 1506 1508 1510 1512 1515 1517 1520 1522 1523 1525 1526 1528 1529 1529 1530 1531 1531 1532 1532 1531 1531 1531 1531 1531 1531 1531 1531 1531 1530 1530 1530 1530 1529 1529 1529 1528 1528 1527 1527 1527 1527 1528
1496 1500 1499 1499 1501 1503 1505 1508 1509 1511 1514 1517 1519 1521 1523 1524 1525 1526 1528 1529 1530 1531 1531 1532 1532 1533 1532 1532 1532 1532 1532 1532 1532 1532 1532 1532 1532 1531 1531 1531 1530 1530 1529 1529 1528 1528 1528 1528 1529
1498 1499 1500 1502 1503 1505 1506 1509 1511 1513 1516 1518 1519 1521 1523 1524 1526 1527 1528 1530 1531 1531 1532 1532 1533 1533 1533 1533 1533 1533 1533 1533 1533 1533 1533 1533 1533 1532 1532 1532 1531 1531 1530 1530 1530 1530 1530 1529 1529
1499 1501 1502 1504 1505 1507 1508 1510 1513 1515 1517 1518 1520 1522 1523 1524 1526 1527 1528 1530 1531 1531 1532 1532 1533 1533 1534 1533 1534 1534 1534 1534 1534 1534 1534 1534 1534 1534 1533 1533 1532 1532 1531 1531 1531 1530 1530 1529 1529
1500 1501 1503 1505 1506 1508 1509 1512 1513 1515 1517 1518 1520 1521 1523 1524 1526 1527 1528 1529 1531 1531 1532 1532 1533 1534 1534 1534 1534 1534 1534 1534 1535 1535 1535 1535 1535 1535 1534 1534 1533 1533 1532 1532 1531 1531 1530 1530 1529
1500 1501 1503 1504 1505 1507 1509 1513 1512 1514 1516 1517 1519 1521 1522 1524 1525 1526 1528 1529 1530 1531 1532 1532 1533 1534 1534 1534 1535 1535 1535 1535 1535 1535 1536 1536 1536 1536 1535 1534 1534 1534 1533 1533 1532 1531 1531 1530 1529
1498 1501 1507 1504 1503 1505 1510 1517 1512 1513 1515 1516 1518 1520 1521 1523 1524 1525 1527 1528 1529 1531 1531 1532 1533 1534 1534 1534 1535 1535 1535 1535 1535 1535 1536 1536 1536 1536 1535 1535 1534 1534 1533 1533 1532 1531 1531 1530 1529
1499 1503 1505 1504 1501 1503 1507 1512 1511 1512 1513 1515 1516 1518 1520 1521 1523 1524 1526 1527 1529 1530 1531 1531 1532 1533 1534 1534 1535 1535 1535 1535 1536 1536 1536 1536 1536 1536 1535 1535 1535 1534 1533 1533 1532 1532 1531 1530 1529
1501 1499 1500 1502 1500 1502 1506 1508 1509 1510 1512 1513 1515 1516 1518 1519 1521 1523 1524 1526 1527 1529 1530 1531 1532 1533 1533 1534 1535 1535 1536 1536 1536 1536 1536 1536 1536 1535 1535 1535 1535 1534 1533 1533 1532 1531 1531 1531 1530
1493 1495 1498 1498 1496 1501 1505 1506 1506 1508 1509 1510 1512 1513 1515 1517 1520 1521 1522 1524 1526 1528 1529 1530 1531 1532 1532 1533 1534 1535 1535 1536 1536 1536 1536 1536 1535 1535 1535 1535 1534 1534 1533 1533 1532 1531 1531 1530 1530
1492 1496 1497 1496 1495 1499 1503 1503 1502 1503 1506 1508 1509 1511 1512 1514 1517 1519 1521 1523 1524 1526 1528 1529 1530 1531 1532 1533 1534 1534 1535 1535 1536 1536 1536 1536 1535 1535 1534 1534 1534 1533 1533 1532 1532 1531 1531 1530 1530
1493 1496 1497 1498 1495 1495 1500 1504 1500 1500 1502 1504 1506 1508 1510 1511 1514 1516 1518 1520 1523 1524 1527 1528 1529 1530 1531 1532 1533 1534 1534 1535 1535 1535 1535 1535 1535 1534 1534 1534 1533 1533 1532 1532 1531 1531 1531 1530 1530
1497 1492 1493 1495 1500 1502 1500 1509 1499 1496 1499 1500 1503 1505 1507 1509 1512 1514 1516 1518 1520 1522 1524 1526 1528 1529 1530 1530 1532 1532 1533 1533 1534 1534 1534 1534 1534 1534 1533 1533 1533 1532 1532 1531 1531 1531 1530 1530 1530
1494 1491 1492 1494 1497 1500 1496 1503 1498 1492 1497 1497 1498 1501 1504 1506 1509 1511 1513 1516 1518 1520 1522 1524 1526 1527 1528 1529 1530 1531 1531 1532 1532 1533 1532 1533 1533 1532 1532 1532 1532 1531 1531 1531 1530 1530 1530 1529 1529
1491 1492 1491 1491 1496 1506 1493 1498 1500 1493 1492 1492 1495 1498 1501 1504 1506 1509 1511 1514 1516 1518 1520 1522 1524 1525 1526 1527 1528 1529 1530 1530 1531 1531 1531 1531 1531 1531 1531 1530 1530 1530 1530 1529 1529 1529 1529 1528 1528
1493 1499 1507 1507 1508 1502 1485 1491 1495 1486 1485 1488 1491 1495 1498 1501 1504 1507 1509 1512 1514 1516 1518 1520 1522 1523 1524 1525 1526 1527 1528 1528 1529 1529 1529 1529 1529 1529 1529 1529 1529 1528 1528 1528 1528 1527 1527 1527 1526
1494 1497 1510 1516 1509 1498 1485 1490 1488 1481 1484 1486 1489 1493 1497 1499 1502 1504 1507 1509 1512 1514 1515 1517 1519 1520 1522 1523 1524 1525 1526 1527 1527 1527 1527 1527 1528 1527 1527 1527 1527 1527 1527 1526 1526 1526 1525 1525 1525
1494 1496 1492 1500 1498 1499 1490 1485 1484 1481 1484 1486 1489 1492 1494 1497 1499 1502 1505 1507 1510 1512 1513 1515 1517 1518 1519 1520 1522 1523 1524 1524 1525 1525 1526 1526 1526 1526 1526 1525 1525 1525 1525 1524 1524 1523 1523 1523 1522
1492 1493 1496 1502 1507 1507 1494 1490 1491 1487 1486 1486 1488 1490 1492 1495 1498 1500 1503 1505 1507 1509 1511 1513 1514 1516 1517 1518 1519 1521 1521 1522 1523 1523 1523 1524 1524 1524 1524 1523 1523 1523 1522 1522 1522 1521 1521 1520 1520
1494 1496 1495 1497 1497 1505 1506 1500 1481 1482 1482 1484 1486 1488 1491 1494 1496 1498 1501 1503 1505 1507 1508 1510 1512 1513 1515 1516 1517 1518 1519 1520 1521 1521 1521 1522 1522 1522 1522 1521 1521 1520 1520 1520 1519 1519 1518 1518 1517
1490 1493 1495 1505 1502 1496 1501 1501 1480 1480 1481 1482 1484 1487 1489 1492 1494 1496 1498 1501 1502 1504 1506 1507 1509 1510 1512 1513 1515 1516 1517 1517 1518 1519 1519 1520 1520 1520 1519 1519 1519 1518 1518 1517 1516 1516 1516 1515 1514